TimeMST,TemperatureF,Dew PointF,Humidity,Sea Level PressureIn,VisibilityMPH,Wind Direction,Wind SpeedMPH,Gust SpeedMPH,PrecipitationIn,Events,Conditions,WindDirDegrees,DateUTC
12:52 AM,24.1,18.0,77,29.99,10.0,SSE,12.7,-,N/A,,Overcast,160,2013-02-21 07:52:00
1:02 AM,24.8,17.6,74,29.89,10.0,South,11.5,-,N/A,,Overcast,170,2013-02-21 08:02:00
1:52 AM,23.0,18.0,81,29.99,10.0,SSE,10.4,-,N/A,,Overcast,150,2013-02-21 08:52:00
2:52 AM,21.9,17.1,82,29.99,10.0,SE,11.5,-,N/A,,Overcast,140,2013-02-21 09:52:00
3:52 AM,21.0,17.1,85,30.01,10.0,SE,13.8,-,N/A,,Overcast,140,2013-02-21 10:52:00
4:11 AM,19.4,17.6,93,29.88,6.0,SE,11.5,-,0.00,Snow,Light Snow,130,2013-02-21 11:11:00
4:22 AM,19.4,17.6,93,29.89,5.0,SE,10.4,-,0.00,Snow,Light Snow,130,2013-02-21 11:22:00
4:50 AM,19.4,17.6,93,29.89,3.0,SE,13.8,-,0.00,Snow,Light Snow,140,2013-02-21 11:50:00
4:52 AM,19.9,17.1,89,30.01,3.0,SE,11.5,-,0.00,Snow,Light Snow,130,2013-02-21 11:52:00
4:59 AM,19.4,17.6,93,29.89,3.0,SE,12.7,-,0.00,Snow,Light Snow,130,2013-02-21 11:59:00
5:16 AM,19.4,17.6,93,29.90,2.5,SE,12.7,-,0.00,Snow,Light Snow,140,2013-02-21 12:16:00
5:52 AM,19.0,17.1,92,30.04,1.8,SE,11.5,-,0.01,Snow,Light Snow,130,2013-02-21 12:52:00
6:00 AM,19.4,17.6,93,29.91,2.5,SE,9.2,-,N/A,Snow,Light Snow,130,2013-02-21 13:00:00
6:14 AM,19.4,17.6,93,29.92,1.8,SE,10.4,-,0.01,Snow,Light Snow,130,2013-02-21 13:14:00
6:38 AM,19.4,17.6,93,29.92,2.5,SE,9.2,-,0.01,Snow,Light Snow,130,2013-02-21 13:38:00
6:52 AM,19.0,16.0,88,30.06,1.5,SE,9.2,-,0.01,Snow,Light Snow,130,2013-02-21 13:52:00
7:52 AM,19.0,16.0,88,30.08,1.0,SE,4.6,-,0.02,Snow,Light Snow,130,2013-02-21 14:52:00
8:52 AM,19.9,17.1,89,30.08,1.0,SE,6.9,-,0.01,Snow,Light Snow,140,2013-02-21 15:52:00
8:56 AM,19.4,17.6,93,29.95,2.0,SE,8.1,-,0.00,Snow,Light Snow,140,2013-02-21 15:56:00
9:19 AM,19.4,15.8,86,29.95,3.0,SE,8.1,-,0.00,Snow,Light Snow,140,2013-02-21 16:19:00
9:43 AM,19.4,17.6,93,29.95,2.0,SE,5.8,-,0.00,Snow,Light Snow,130,2013-02-21 16:43:00
9:45 AM,21.2,17.6,86,29.95,1.8,SE,6.9,-,0.00,Snow,Light Snow,130,2013-02-21 16:45:00
9:52 AM,21.0,17.1,85,30.08,1.5,SE,4.6,-,0.00,Snow,Light Snow,140,2013-02-21 16:52:00
10:35 AM,21.2,17.6,86,29.95,2.0,SSE,5.8,-,0.01,Snow,Light Snow,150,2013-02-21 17:35:00
10:43 AM,21.2,17.6,86,29.95,1.2,SE,4.6,-,0.01,Snow,Light Snow,140,2013-02-21 17:43:00
10:52 AM,21.9,18.0,85,30.09,1.2,SE,5.8,-,0.01,Snow,Light Snow,140,2013-02-21 17:52:00
11:29 AM,21.2,19.4,93,29.95,2.0,SE,4.6,-,0.01,Snow,Light Snow,130,2013-02-21 18:29:00
11:40 AM,21.2,19.4,93,29.94,3.0,ESE,4.6,-,0.01,Snow,Light Snow,110,2013-02-21 18:40:00
11:52 AM,23.0,19.0,85,30.07,2.5,ESE,4.6,-,0.01,Snow,Light Snow,120,2013-02-21 18:52:00
12:13 PM,24.8,19.4,80,29.94,3.0,ESE,4.6,-,0.00,Snow,Light Snow,110,2013-02-21 19:13:00
12:41 PM,24.8,19.4,80,29.92,3.0,East,3.5,-,0.00,Snow,Light Snow,100,2013-02-21 19:41:00
12:52 PM,25.0,19.9,81,30.04,2.5,ESE,5.8,-,0.00,Snow,Light Snow,120,2013-02-21 19:52:00
12:59 PM,24.8,19.4,80,29.92,4.0,ESE,6.9,-,0.00,Snow,Light Snow,110,2013-02-21 19:59:00
1:20 PM,24.8,19.4,80,29.91,1.8,East,6.9,-,0.00,Snow,Light Snow,80,2013-02-21 20:20:00
1:45 PM,24.8,19.4,80,29.91,3.0,East,10.4,-,0.01,Snow,Light Snow,80,2013-02-21 20:45:00
1:52 PM,24.1,19.0,81,30.04,7.0,East,10.4,-,0.01,Snow,Light Snow,80,2013-02-21 20:52:00
2:52 PM,23.0,19.0,85,30.04,4.0,East,8.1,-,0.00,Snow,Light Snow,80,2013-02-21 21:52:00
3:42 PM,21.2,17.6,86,29.92,2.5,East,5.8,-,0.00,Snow,Light Snow,90,2013-02-21 22:42:00
3:52 PM,21.9,17.1,82,30.05,2.5,East,8.1,-,0.00,Snow,Light Snow,80,2013-02-21 22:52:00
4:06 PM,21.2,17.6,86,29.92,3.0,East,6.9,-,0.00,Snow,Light Snow,90,2013-02-21 23:06:00
4:48 PM,21.2,17.6,86,29.92,10.0,East,6.9,-,0.00,,Overcast,100,2013-02-21 23:48:00
4:52 PM,21.9,17.1,82,30.06,10.0,East,8.1,-,0.00,,Overcast,80,2013-02-21 23:52:00
5:52 PM,21.9,16.0,78,30.07,9.0,East,5.8,-,0.00,Snow,Light Snow,90,2013-02-22 00:52:00
6:09 PM,21.2,17.6,86,29.94,5.0,East,4.6,-,0.00,Snow,Light Snow,100,2013-02-22 01:09:00
6:52 PM,21.0,17.1,85,30.08,5.0,ESE,5.8,-,0.00,Snow,Light Snow,110,2013-02-22 01:52:00
7:04 PM,21.2,17.6,86,29.94,3.0,ESE,5.8,-,0.00,Snow,Light Snow,110,2013-02-22 02:04:00
7:17 PM,19.4,17.6,93,29.93,2.5,ESE,5.8,-,0.01,Snow,Light Snow,110,2013-02-22 02:17:00
7:31 PM,19.4,17.6,93,29.93,3.0,ESE,6.9,-,0.01,Snow,Light Snow,110,2013-02-22 02:31:00
7:52 PM,19.9,17.1,89,30.08,4.0,ESE,5.8,-,0.01,Snow,Light Snow,110,2013-02-22 02:52:00
8:07 PM,19.4,17.6,93,29.93,2.5,ESE,8.1,-,0.00,Snow,Light Snow,120,2013-02-22 03:07:00
8:30 PM,19.4,15.8,86,29.93,3.0,ESE,5.8,-,0.01,Snow,Light Snow,110,2013-02-22 03:30:00
8:52 PM,18.0,15.1,88,30.08,3.0,ESE,5.8,-,0.01,Snow,Light Snow,110,2013-02-22 03:52:00
9:07 PM,17.6,15.8,93,29.93,5.0,ESE,5.8,-,0.00,Snow,Light Snow,120,2013-02-22 04:07:00
9:24 PM,17.6,15.8,93,29.93,5.0,ESE,4.6,-,0.00,Snow,Light Snow,110,2013-02-22 04:24:00
9:31 PM,17.6,15.8,93,29.93,4.0,East,4.6,-,0.00,Snow,Light Snow,100,2013-02-22 04:31:00
9:52 PM,17.1,14.0,88,30.08,8.0,ESE,5.8,-,0.00,,Overcast,120,2013-02-22 04:52:00
10:17 PM,17.6,14.0,86,29.92,2.5,ESE,5.8,-,0.00,Snow,Light Snow,110,2013-02-22 05:17:00
10:24 PM,15.8,14.0,93,29.92,3.0,ESE,4.6,-,0.00,Snow,Light Snow,110,2013-02-22 05:24:00
10:52 PM,16.0,12.9,88,30.07,7.0,ESE,5.8,-,0.00,,Overcast,110,2013-02-22 05:52:00
11:43 PM,15.8,12.2,86,29.92,2.0,ESE,8.1,-,0.00,Snow,Light Snow,120,2013-02-22 06:43:00
11:52 PM,15.1,12.0,88,30.07,2.0,ESE,6.9,-,0.01,Snow,Light Snow,120,2013-02-22 06:52:00